owner,sensor,date,latitude,longitude,vertical_datum,direction_of_sea_water_velocity,sea_water_speed,upward_sea_water_velocity,qcFlag 
TABS,ioos:station:wmo:42048:1,2009-05-01T00:00:00Z,27.9396,-96.8429,2.0,217.0096786,30.26809046,-99999.0,'11111222,11111222,99999999' 
TABS,ioos:station:wmo:42048:1,2009-05-01T00:30:00Z,27.9396,-96.8429,2.0,222.9233166,26.15183741,-99999.0,'11111222,11111222,99999999' 
TABS,ioos:station:wmo:42048:1,2009-05-01T01:00:00Z,27.9396,-96.8429,2.0,212.6457992,20.85464217,-99999.0,'11111222,11111222,99999999' 
TABS,ioos:station:wmo:42048:1,2009-05-01T01:30:00Z,27.9396,-96.8429,2.0,224.7756356,19.89106583,-99999.0,'11111222,11111222,99999999' 
TABS,ioos:station:wmo:42048:1,2009-05-01T02:00:00Z,27.9396,-96.8429,2.0,238.8229865,17.07623202,-99999.0,'11111222,11111222,99999999' 
TABS,ioos:station:wmo:42048:1,2009-05-01T02:30:00Z,27.9396,-96.8429,2.0,243.6563525,25.41981117,-99999.0,'11111222,11111222,99999999' 
TABS,ioos:station:wmo:42048:1,2009-05-01T03:00:00Z,27.9396,-96.8429,2.0,239.8827394,28.08081552,-99999.0,'11111222,11111222,99999999' 
TABS,ioos:station:wmo:42048:1,2009-05-01T03:30:00Z,27.9396,-96.8429,2.0,240.7624401,29.25722133,-99999.0,'11111222,11111222,99999999' 
TABS,ioos:station:wmo:42048:1,2009-05-01T04:00:00Z,27.9396,-96.8429,2.0,241.3548869,29.32969826,-99999.0,'11111222,11111222,99999999' 
TABS,ioos:station:wmo:42048:1,2009-05-01T04:30:00Z,27.9396,-96.8429,2.0,255.9453995,38.6674566,-99999.0,'11111222,11111222,99999999' 
TABS,ioos:station:wmo:42048:1,2009-05-01T05:00:00Z,27.9396,-96.8429,2.0,257.5481053,38.58762496,-99999.0,'11111222,11111222,99999999' 
TABS,ioos:station:wmo:42048:1,2009-05-01T05:30:00Z,27.9396,-96.8429,2.0,250.794617,35.29420632,-99999.0,'11111222,11111222,99999999' 
TABS,ioos:station:wmo:42048:1,2009-05-01T06:00:00Z,27.9396,-96.8429,2.0,243.7107898,31.54234138,-99999.0,'11111222,11111222,99999999' 
TABS,ioos:station:wmo:42048:1,2009-05-01T06:30:00Z,27.9396,-96.8429,2.0,240.5988668,29.74034465,-99999.0,'11111222,11111222,99999999' 
TABS,ioos:station:wmo:42048:1,2009-05-01T07:00:00Z,27.9396,-96.8429,2.0,237.8634055,31.09405892,-99999.0,'11111222,11111222,99999999' 
TABS,ioos:station:wmo:42048:1,2009-05-01T07:30:00Z,27.9396,-96.8429,2.0,239.2496837,27.57716447,-99999.0,'11111222,11111222,99999999' 
TABS,ioos:station:wmo:42048:1,2009-05-01T08:00:00Z,27.9396,-96.8429,2.0,246.7917199,24.20896735,-99999.0,'11111222,11111222,99999999' 
TABS,ioos:station:wmo:42048:1,2009-05-01T08:30:00Z,27.9396,-96.8429,2.0,241.0643453,23.7897562,-99999.0,'11111222,11111222,99999999' 
TABS,ioos:station:wmo:42048:1,2009-05-01T09:00:00Z,27.9396,-96.8429,2.0,239.7288308,25.80899456,-99999.0,'11111222,11111222,99999999' 
TABS,ioos:station:wmo:42048:1,2009-05-01T09:30:00Z,27.9396,-96.8429,2.0,243.2620133,22.27133808,-99999.0,'11111222,11111222,99999999' 
TABS,ioos:station:wmo:42048:1,2009-05-01T10:00:00Z,27.9396,-96.8429,2.0,240.3055914,20.97428187,-99999.0,'11111222,11111222,99999999' 
TABS,ioos:station:wmo:42048:1,2009-05-01T10:30:00Z,27.9396,-96.8429,2.0,235.7279957,24.04471875,-99999.0,'11111222,11111222,99999999' 
TABS,ioos:station:wmo:42048:1,2009-05-01T11:00:00Z,27.9396,-96.8429,2.0,244.5859882,21.81053874,-99999.0,'11111222,11111222,99999999' 
TABS,ioos:station:wmo:42048:1,2009-05-01T11:30:00Z,27.9396,-96.8429,2.0,239.2999283,19.72426171,-99999.0,'11111222,11111222,99999999' 
TABS,ioos:station:wmo:42048:1,2009-05-01T12:00:00Z,27.9396,-96.8429,2.0,242.7870685,20.57761162,-99999.0,'11111222,11111222,99999999' 
TABS,ioos:station:wmo:42048:1,2009-05-01T12:30:00Z,27.9396,-96.8429,2.0,233.2491571,20.15604376,-99999.0,'11111222,11111222,99999999' 
TABS,ioos:station:wmo:42048:1,2009-05-01T13:00:00Z,27.9396,-96.8429,2.0,234.2363724,19.77968908,-99999.0,'11111222,11111222,99999999' 
TABS,ioos:station:wmo:42048:1,2009-05-01T13:30:00Z,27.9396,-96.8429,2.0,245.7116224,20.37324962,-99999.0,'11111222,11111222,99999999' 
TABS,ioos:station:wmo:42048:1,2009-05-01T14:00:00Z,27.9396,-96.8429,2.0,250.5578584,18.3566936,-99999.0,'11111222,11111222,99999999' 
TABS,ioos:station:wmo:42048:1,2009-05-01T14:30:00Z,27.9396,-96.8429,2.0,261.181981,17.67894228,-99999.0,'11111222,11111222,99999999' 
TABS,ioos:station:wmo:42048:1,2009-05-01T15:00:00Z,27.9396,-96.8429,2.0,256.5330038,16.83280428,-99999.0,'11111222,11111222,99999999' 
TABS,ioos:station:wmo:42048:1,2009-05-01T15:30:00Z,27.9396,-96.8429,2.0,256.8962532,16.98217006,-99999.0,'11111222,11111222,99999999' 
TABS,ioos:station:wmo:42048:1,2009-05-01T16:00:00Z,27.9396,-96.8429,2.0,264.2746924,15.93950125,-99999.0,'11111222,11111222,99999999' 
TABS,ioos:station:wmo:42048:1,2009-05-01T16:30:00Z,27.9396,-96.8429,2.0,272.0932167,14.23949788,-99999.0,'11111222,11111222,99999999' 
TABS,ioos:station:wmo:42048:1,2009-05-01T17:00:00Z,27.9396,-96.8429,2.0,271.7962938,14.99736644,-99999.0,'11111222,11111222,99999999' 
TABS,ioos:station:wmo:42048:1,2009-05-01T17:30:00Z,27.9396,-96.8429,2.0,276.6190517,14.31540778,-99999.0,'11111222,11111222,99999999' 
TABS,ioos:station:wmo:42048:1,2009-05-01T18:00:00Z,27.9396,-96.8429,2.0,285.7931599,14.95449765,-99999.0,'11111222,11111222,99999999' 
TABS,ioos:station:wmo:42048:1,2009-05-01T18:30:00Z,27.9396,-96.8429,2.0,290.1816936,12.34810512,-99999.0,'11111222,11111222,99999999' 
TABS,ioos:station:wmo:42048:1,2009-05-01T19:00:00Z,27.9396,-96.8429,2.0,286.2826067,11.44920085,-99999.0,'11111222,11111222,99999999' 
TABS,ioos:station:wmo:42048:1,2009-05-01T19:30:00Z,27.9396,-96.8429,2.0,282.0773357,13.4783085,-99999.0,'11111222,11111222,99999999' 
TABS,ioos:station:wmo:42048:1,2009-05-01T20:00:00Z,27.9396,-96.8429,2.0,283.1154452,11.76692398,-99999.0,'11111222,11111222,99999999' 
TABS,ioos:station:wmo:42048:1,2009-05-01T20:30:00Z,27.9396,-96.8429,2.0,287.1856446,12.759663,-99999.0,'11111222,11111222,99999999' 
TABS,ioos:station:wmo:42048:1,2009-05-01T21:00:00Z,27.9396,-96.8429,2.0,289.9730087,14.02342683,-99999.0,'11111222,11111222,99999999' 
TABS,ioos:station:wmo:42048:1,2009-05-01T21:30:00Z,27.9396,-96.8429,2.0,289.6809922,12.94626201,-99999.0,'11111222,11111222,99999999' 
TABS,ioos:station:wmo:42048:1,2009-05-01T22:00:00Z,27.9396,-96.8429,2.0,271.6487616,11.12460336,-99999.0,'11111222,11111222,99999999' 
TABS,ioos:station:wmo:42048:1,2009-05-01T22:30:00Z,27.9396,-96.8429,2.0,278.9137494,14.06991116,-99999.0,'11111222,11111222,99999999' 
TABS,ioos:station:wmo:42048:1,2009-05-01T23:00:00Z,27.9396,-96.8429,2.0,279.3282086,14.00518832,-99999.0,'11111222,11111222,99999999' 
TABS,ioos:station:wmo:42048:1,2009-05-01T23:30:00Z,27.9396,-96.8429,2.0,275.0062418,15.12769976,-99999.0,'11111222,11111222,99999999' 
TABS,ioos:station:wmo:42048:1,2009-05-02T00:00:00Z,27.9396,-96.8429,2.0,271.8685271,14.41766278,-99999.0,'11111222,11111222,99999999' 
TABS,ioos:station:wmo:42048:1,2009-05-02T00:30:00Z,27.9396,-96.8429,2.0,277.7553277,15.1182671,-99999.0,'11111222,11111222,99999999' 
TABS,ioos:station:wmo:42048:1,2009-05-02T01:00:00Z,27.9396,-96.8429,2.0,272.8968379,13.45719139,-99999.0,'11111222,11111222,99999999' 
TABS,ioos:station:wmo:42048:1,2009-05-02T01:30:00Z,27.9396,-96.8429,2.0,268.2080271,10.87531609,-99999.0,'11111222,11111222,99999999' 
TABS,ioos:station:wmo:42048:1,2009-05-02T02:00:00Z,27.9396,-96.8429,2.0,259.6821836,12.22771442,-99999.0,'11111222,11111222,99999999' 
TABS,ioos:station:wmo:42048:1,2009-05-02T02:30:00Z,27.9396,-96.8429,2.0,256.1435428,13.11154072,-99999.0,'11111222,11111222,99999999' 
TABS,ioos:station:wmo:42048:1,2009-05-02T03:00:00Z,27.9396,-96.8429,2.0,257.4560768,12.66223124,-99999.0,'11111222,11111222,99999999' 
TABS,ioos:station:wmo:42048:1,2009-05-02T03:30:00Z,27.9396,-96.8429,2.0,268.0112458,13.2579825,-99999.0,'11111222,11111222,99999999' 
TABS,ioos:station:wmo:42048:1,2009-05-02T04:00:00Z,27.9396,-96.8429,2.0,258.2186172,12.8813431,-99999.0,'11111222,11111222,99999999' 
TABS,ioos:station:wmo:42048:1,2009-05-02T04:30:00Z,27.9396,-96.8429,2.0,253.5042549,11.30529522,-99999.0,'11111222,11111222,99999999' 
TABS,ioos:station:wmo:42048:1,2009-05-02T05:00:00Z,27.9396,-96.8429,2.0,248.0390664,12.70161013,-99999.0,'11111222,11111222,99999999' 
TABS,ioos:station:wmo:42048:1,2009-05-02T05:30:00Z,27.9396,-96.8429,2.0,249.298661,12.95649644,-99999.0,'11111222,11111222,99999999' 
TABS,ioos:station:wmo:42048:1,2009-05-02T06:00:00Z,27.9396,-96.8429,2.0,248.7325686,10.75222768,-99999.0,'11111222,11111222,99999999' 
TABS,ioos:station:wmo:42048:1,2009-05-02T06:30:00Z,27.9396,-96.8429,2.0,240.6471971,11.77117241,-99999.0,'11111222,11111222,99999999' 
TABS,ioos:station:wmo:42048:1,2009-05-02T07:00:00Z,27.9396,-96.8429,2.0,248.3344493,9.372070209,-99999.0,'11133222,11111222,99999999' 
TABS,ioos:station:wmo:42048:1,2009-05-02T07:30:00Z,27.9396,-96.8429,2.0,238.612362,8.352209289,-99999.0,'11133222,11111222,99999999' 
TABS,ioos:station:wmo:42048:1,2009-05-02T08:00:00Z,27.9396,-96.8429,2.0,239.8436652,6.569048637,-99999.0,'11133222,11111222,99999999' 
TABS,ioos:station:wmo:42048:1,2009-05-02T08:30:00Z,27.9396,-96.8429,2.0,238.9963535,7.455045271,-99999.0,'11133222,11111222,99999999' 
TABS,ioos:station:wmo:42048:1,2009-05-02T09:00:00Z,27.9396,-96.8429,2.0,248.9016788,8.167496556,-99999.0,'11133222,11111222,99999999' 
TABS,ioos:station:wmo:42048:1,2009-05-02T09:30:00Z,27.9396,-96.8429,2.0,238.9902895,6.463783722,-99999.0,'11133222,11111222,99999999' 
TABS,ioos:station:wmo:42048:1,2009-05-02T10:00:00Z,27.9396,-96.8429,2.0,264.8759374,8.062214336,-99999.0,'11133222,11111222,99999999' 
TABS,ioos:station:wmo:42048:1,2009-05-02T10:30:00Z,27.9396,-96.8429,2.0,242.8472368,4.79885403,-99999.0,'11133222,11111222,99999999' 
TABS,ioos:station:wmo:42048:1,2009-05-02T11:00:00Z,27.9396,-96.8429,2.0,250.6245507,6.360196538,-99999.0,'11133222,11111222,99999999' 
TABS,ioos:station:wmo:42048:1,2009-05-02T11:30:00Z,27.9396,-96.8429,2.0,225.4556082,5.331753933,-99999.0,'11133222,11111222,99999999' 
TABS,ioos:station:wmo:42048:1,2009-05-02T12:00:00Z,27.9396,-96.8429,2.0,249.6332053,4.59740144,-99999.0,'11133222,11111222,99999999' 
TABS,ioos:station:wmo:42048:1,2009-05-02T12:30:00Z,27.9396,-96.8429,2.0,242.6420131,4.526234638,-99999.0,'11133222,11111222,99999999' 
TABS,ioos:station:wmo:42048:1,2009-05-02T13:00:00Z,27.9396,-96.8429,2.0,205.6086118,3.215913556,-99999.0,'11133222,11111222,99999999' 
TABS,ioos:station:wmo:42048:1,2009-05-02T13:30:00Z,27.9396,-96.8429,2.0,238.8702479,5.338773267,-99999.0,'11133222,11111222,99999999' 
TABS,ioos:station:wmo:42048:1,2009-05-02T14:00:00Z,27.9396,-96.8429,2.0,218.4980548,4.433790703,-99999.0,'11133222,11111222,99999999' 
TABS,ioos:station:wmo:42048:1,2009-05-02T14:30:00Z,27.9396,-96.8429,2.0,217.888649,3.59856916,-99999.0,'11133222,11111222,99999999' 
TABS,ioos:station:wmo:42048:1,2009-05-02T15:00:00Z,27.9396,-96.8429,2.0,180.6900651,4.980361433,-99999.0,'11133222,11111222,99999999' 
TABS,ioos:station:wmo:42048:1,2009-05-02T15:30:00Z,27.9396,-96.8429,2.0,227.664813,4.410045351,-99999.0,'11133222,11111222,99999999' 
TABS,ioos:station:wmo:42048:1,2009-05-02T16:00:00Z,27.9396,-96.8429,2.0,192.823296,5.271479868,-99999.0,'11133222,11111222,99999999' 
TABS,ioos:station:wmo:42048:1,2009-05-02T16:30:00Z,27.9396,-96.8429,2.0,195.8053461,3.377706322,-99999.0,'11133222,11111222,99999999' 
TABS,ioos:station:wmo:42048:1,2009-05-02T17:00:00Z,27.9396,-96.8429,2.0,204.4822182,2.461300469,-99999.0,'11133222,11111222,99999999' 
TABS,ioos:station:wmo:42048:1,2009-05-02T17:30:00Z,27.9396,-96.8429,2.0,101.0893696,2.547567467,-99999.0,'11133222,11111222,99999999' 
TABS,ioos:station:wmo:42048:1,2009-05-02T18:00:00Z,27.9396,-96.8429,2.0,83.15724259,1.007174265,-99999.0,'11133222,11111222,99999999' 
TABS,ioos:station:wmo:42048:1,2009-05-02T18:30:00Z,27.9396,-96.8429,2.0,210.8502413,1.735569071,-99999.0,'11133222,11111222,99999999' 
TABS,ioos:station:wmo:42048:1,2009-05-02T19:00:00Z,27.9396,-96.8429,2.0,181.1769317,1.460308187,-99999.0,'11133222,11111222,99999999' 
TABS,ioos:station:wmo:42048:1,2009-05-02T19:30:00Z,27.9396,-96.8429,2.0,255.9633684,1.690473307,-99999.0,'11133222,11111222,99999999' 
TABS,ioos:station:wmo:42048:1,2009-05-02T20:00:00Z,27.9396,-96.8429,2.0,316.2733427,1.591383046,-99999.0,'11133222,11111222,99999999' 
TABS,ioos:station:wmo:42048:1,2009-05-02T20:30:00Z,27.9396,-96.8429,2.0,24.67089786,2.299934782,-99999.0,'11133222,11111222,99999999' 
TABS,ioos:station:wmo:42048:1,2009-05-02T21:00:00Z,27.9396,-96.8429,2.0,54.87947271,2.555190795,-99999.0,'11133222,11111222,99999999' 
TABS,ioos:station:wmo:42048:1,2009-05-02T21:30:00Z,27.9396,-96.8429,2.0,73.39305826,1.784432683,-99999.0,'11133222,11111222,99999999' 
TABS,ioos:station:wmo:42048:1,2009-05-02T22:00:00Z,27.9396,-96.8429,2.0,45.86815465,1.866976165,-99999.0,'11133222,11111222,99999999' 
TABS,ioos:station:wmo:42048:1,2009-05-02T22:30:00Z,27.9396,-96.8429,2.0,219.3159913,1.499366533,-99999.0,'11133222,11111222,99999999' 
TABS,ioos:station:wmo:42048:1,2009-05-02T23:00:00Z,27.9396,-96.8429,2.0,55.43755617,2.185772175,-99999.0,'11133222,11111222,99999999' 
TABS,ioos:station:wmo:42048:1,2009-05-02T23:30:00Z,27.9396,-96.8429,2.0,350.6652338,1.479594539,-99999.0,'11133222,11111222,99999999' 
TABS,ioos:station:wmo:42048:1,2009-05-03T00:00:00Z,27.9396,-96.8429,2.0,240.993231,1.154859299,-99999.0,'11133222,11111222,99999999' 
TABS,ioos:station:wmo:42048:1,2009-05-03T00:30:00Z,27.9396,-96.8429,2.0,344.9878107,2.277740108,-99999.0,'11133222,11111222,99999999' 
TABS,ioos:station:wmo:42048:1,2009-05-03T01:00:00Z,27.9396,-96.8429,2.0,259.2244169,2.941870153,-99999.0,'11133222,11111222,99999999' 
TABS,ioos:station:wmo:42048:1,2009-05-03T01:30:00Z,27.9396,-96.8429,2.0,272.4474638,2.342135777,-99999.0,'11133222,11111222,99999999' 
TABS,ioos:station:wmo:42048:1,2009-05-03T02:00:00Z,27.9396,-96.8429,2.0,212.9774357,3.123203484,-99999.0,'11133222,11111222,99999999' 
TABS,ioos:station:wmo:42048:1,2009-05-03T02:30:00Z,27.9396,-96.8429,2.0,247.8476738,2.73162955,-99999.0,'11133222,11111222,99999999' 
TABS,ioos:station:wmo:42048:1,2009-05-03T03:00:00Z,27.9396,-96.8429,2.0,255.9633684,0.948314294,-99999.0,'11133222,11111222,99999999' 
TABS,ioos:station:wmo:42048:1,2009-05-03T03:30:00Z,27.9396,-96.8429,2.0,250.5890931,5.386139619,-99999.0,'11133222,11111222,99999999' 
TABS,ioos:station:wmo:42048:1,2009-05-03T04:00:00Z,27.9396,-96.8429,2.0,258.1018687,3.249815379,-99999.0,'11133222,11111222,99999999' 
TABS,ioos:station:wmo:42048:1,2009-05-03T04:30:00Z,27.9396,-96.8429,2.0,218.2807556,2.598788179,-99999.0,'11133222,11111222,99999999' 
TABS,ioos:station:wmo:42048:1,2009-05-03T05:00:00Z,27.9396,-96.8429,2.0,236.0372747,2.917755987,-99999.0,'11133222,11111222,99999999' 
TABS,ioos:station:wmo:42048:1,2009-05-03T05:30:00Z,27.9396,-96.8429,2.0,237.7678757,3.48742025,-99999.0,'11133222,11111222,99999999' 
TABS,ioos:station:wmo:42048:1,2009-05-03T06:00:00Z,27.9396,-96.8429,2.0,292.4378279,4.349252809,-99999.0,'11133222,11111222,99999999' 
TABS,ioos:station:wmo:42048:1,2009-05-03T06:30:00Z,27.9396,-96.8429,2.0,278.6375321,5.59343365,-99999.0,'11133222,11111222,99999999' 
TABS,ioos:station:wmo:42048:1,2009-05-03T07:00:00Z,27.9396,-96.8429,2.0,301.8061185,8.519254662,-99999.0,'11133222,11111222,99999999' 
TABS,ioos:station:wmo:42048:1,2009-05-03T07:30:00Z,27.9396,-96.8429,2.0,280.8708073,7.158449553,-99999.0,'11133222,11111222,99999999' 
TABS,ioos:station:wmo:42048:1,2009-05-03T08:00:00Z,27.9396,-96.8429,2.0,293.9046488,7.995855176,-99999.0,'11133222,11111222,99999999' 
TABS,ioos:station:wmo:42048:1,2009-05-03T08:30:00Z,27.9396,-96.8429,2.0,300.8160546,8.628122623,-99999.0,'11133222,11111222,99999999' 
TABS,ioos:station:wmo:42048:1,2009-05-03T09:00:00Z,27.9396,-96.8429,2.0,308.9986161,8.724018569,-99999.0,'11133222,11111222,99999999' 
TABS,ioos:station:wmo:42048:1,2009-05-03T09:30:00Z,27.9396,-96.8429,2.0,332.7710375,8.873313924,-99999.0,'11133222,11111222,99999999' 
TABS,ioos:station:wmo:42048:1,2009-05-03T10:00:00Z,27.9396,-96.8429,2.0,320.6332868,9.869371814,-99999.0,'11133222,11111222,99999999' 
TABS,ioos:station:wmo:42048:1,2009-05-03T10:30:00Z,27.9396,-96.8429,2.0,319.3237209,8.254211046,-99999.0,'11133222,11111222,99999999' 
TABS,ioos:station:wmo:42048:1,2009-05-03T11:00:00Z,27.9396,-96.8429,2.0,306.3014926,8.462416912,-99999.0,'11133222,11111222,99999999' 
TABS,ioos:station:wmo:42048:1,2009-05-03T11:30:00Z,27.9396,-96.8429,2.0,332.8583372,8.439348316,-99999.0,'11133222,11111222,99999999' 
TABS,ioos:station:wmo:42048:1,2009-05-03T12:00:00Z,27.9396,-96.8429,2.0,319.4465459,7.844208054,-99999.0,'11133222,11111222,99999999' 
TABS,ioos:station:wmo:42048:1,2009-05-03T12:30:00Z,27.9396,-96.8429,2.0,331.2103786,8.409482743,-99999.0,'11133222,11111222,99999999' 
TABS,ioos:station:wmo:42048:1,2009-05-03T13:00:00Z,27.9396,-96.8429,2.0,328.5812063,10.35884163,-99999.0,'11111222,11111222,99999999' 
TABS,ioos:station:wmo:42048:1,2009-05-03T13:30:00Z,27.9396,-96.8429,2.0,339.2860841,10.17793692,-99999.0,'11111222,11111222,99999999' 
TABS,ioos:station:wmo:42048:1,2009-05-03T14:00:00Z,27.9396,-96.8429,2.0,345.247476,9.503288904,-99999.0,'11133222,11111222,99999999' 
TABS,ioos:station:wmo:42048:1,2009-05-03T14:30:00Z,27.9396,-96.8429,2.0,352.0930662,10.54021347,-99999.0,'11111222,11111222,99999999' 
TABS,ioos:station:wmo:42048:1,2009-05-03T15:00:00Z,27.9396,-96.8429,2.0,331.9617865,9.913531157,-99999.0,'11133222,11111222,99999999' 
TABS,ioos:station:wmo:42048:1,2009-05-03T15:30:00Z,27.9396,-96.8429,2.0,342.9152012,9.5305876,-99999.0,'11133222,11111222,99999999' 
TABS,ioos:station:wmo:42048:1,2009-05-03T16:00:00Z,27.9396,-96.8429,2.0,321.4680328,11.92701975,-99999.0,'11111222,11111222,99999999' 
TABS,ioos:station:wmo:42048:1,2009-05-03T16:30:00Z,27.9396,-96.8429,2.0,328.3257903,10.64573624,-99999.0,'11111222,11111222,99999999' 
TABS,ioos:station:wmo:42048:1,2009-05-03T17:00:00Z,27.9396,-96.8429,2.0,330.2600313,15.34061602,-99999.0,'11111222,11111222,99999999' 
TABS,ioos:station:wmo:42048:1,2009-05-03T17:30:00Z,27.9396,-96.8429,2.0,326.6932221,15.35167092,-99999.0,'11111222,11111222,99999999' 
TABS,ioos:station:wmo:42048:1,2009-05-03T18:00:00Z,27.9396,-96.8429,2.0,321.9693267,23.19476234,-99999.0,'11111222,11111222,99999999' 
TABS,ioos:station:wmo:42048:1,2009-05-03T18:30:00Z,27.9396,-96.8429,2.0,315.5252611,21.61009024,-99999.0,'11111222,11111222,99999999' 
TABS,ioos:station:wmo:42048:1,2009-05-03T19:00:00Z,27.9396,-96.8429,2.0,322.4076064,30.44042214,-99999.0,'11111222,11111222,99999999' 
TABS,ioos:station:wmo:42048:1,2009-05-03T19:30:00Z,27.9396,-96.8429,2.0,7.352572626,19.06676952,-99999.0,'11111222,11111222,99999999' 
TABS,ioos:station:wmo:42048:1,2009-05-03T20:00:00Z,27.9396,-96.8429,2.0,9.617164717,24.36237468,-99999.0,'11111222,11111222,99999999' 
TABS,ioos:station:wmo:42048:1,2009-05-03T20:30:00Z,27.9396,-96.8429,2.0,15.42692751,24.88663296,-99999.0,'11111222,11111222,99999999' 
TABS,ioos:station:wmo:42048:1,2009-05-03T21:00:00Z,27.9396,-96.8429,2.0,18.22852219,26.31032117,-99999.0,'11111222,11111222,99999999' 
TABS,ioos:station:wmo:42048:1,2009-05-03T21:30:00Z,27.9396,-96.8429,2.0,14.13546725,26.65713038,-99999.0,'11111222,11111222,99999999' 
TABS,ioos:station:wmo:42048:1,2009-05-03T22:00:00Z,27.9396,-96.8429,2.0,15.92168693,32.95417576,-99999.0,'11111222,11111222,99999999' 
TABS,ioos:station:wmo:42048:1,2009-05-03T22:30:00Z,27.9396,-96.8429,2.0,23.94923688,30.37509671,-99999.0,'11111222,11111222,99999999' 
TABS,ioos:station:wmo:42048:1,2009-05-03T23:00:00Z,27.9396,-96.8429,2.0,22.74996494,29.16930579,-99999.0,'11111222,11111222,99999999' 
TABS,ioos:station:wmo:42048:1,2009-05-03T23:30:00Z,27.9396,-96.8429,2.0,23.5194612,25.33466005,-99999.0,'11111222,11111222,99999999' 
TABS,ioos:station:wmo:42048:1,2009-05-04T00:00:00Z,27.9396,-96.8429,2.0,28.61746881,19.98090338,-99999.0,'11111222,11111222,99999999' 
TABS,ioos:station:wmo:42048:1,2009-05-04T00:30:00Z,27.9396,-96.8429,2.0,15.31132584,19.73030664,-99999.0,'11111222,11111222,99999999' 
TABS,ioos:station:wmo:42048:1,2009-05-04T01:00:00Z,27.9396,-96.8429,2.0,25.85551783,22.74702838,-99999.0,'11111222,11111222,99999999' 
TABS,ioos:station:wmo:42048:1,2009-05-04T01:30:00Z,27.9396,-96.8429,2.0,22.99323955,21.96508138,-99999.0,'11111222,11111222,99999999' 
TABS,ioos:station:wmo:42048:1,2009-05-04T02:00:00Z,27.9396,-96.8429,2.0,28.14728298,21.21942978,-99999.0,'11111222,11111222,99999999' 
TABS,ioos:station:wmo:42048:1,2009-05-04T02:30:00Z,27.9396,-96.8429,2.0,25.92436292,20.79226058,-99999.0,'11111222,11111222,99999999' 
TABS,ioos:station:wmo:42048:1,2009-05-04T03:00:00Z,27.9396,-96.8429,2.0,32.91205386,16.95042772,-99999.0,'11111222,11111222,99999999' 
TABS,ioos:station:wmo:42048:1,2009-05-04T03:30:00Z,27.9396,-96.8429,2.0,41.32073558,15.20585414,-99999.0,'11111222,11111222,99999999' 
TABS,ioos:station:wmo:42048:1,2009-05-04T04:00:00Z,27.9396,-96.8429,2.0,37.6768246,12.92528143,-99999.0,'11111222,11111222,99999999' 
TABS,ioos:station:wmo:42048:1,2009-05-04T04:30:00Z,27.9396,-96.8429,2.0,56.4025728,12.01759543,-99999.0,'11111222,11111222,99999999' 
TABS,ioos:station:wmo:42048:1,2009-05-04T05:00:00Z,27.9396,-96.8429,2.0,51.50844913,9.045623251,-99999.0,'11133222,11111222,99999999' 
TABS,ioos:station:wmo:42048:1,2009-05-04T05:30:00Z,27.9396,-96.8429,2.0,64.89784357,7.708002335,-99999.0,'11133222,11111222,99999999' 
TABS,ioos:station:wmo:42048:1,2009-05-04T06:00:00Z,27.9396,-96.8429,2.0,72.97951419,5.636896309,-99999.0,'11133222,11111222,99999999' 
TABS,ioos:station:wmo:42048:1,2009-05-04T06:30:00Z,27.9396,-96.8429,2.0,94.12915321,3.749733324,-99999.0,'11133222,11111222,99999999' 
TABS,ioos:station:wmo:42048:1,2009-05-04T07:00:00Z,27.9396,-96.8429,2.0,70.22396964,1.891560203,-99999.0,'11133222,11111222,99999999' 
TABS,ioos:station:wmo:42048:1,2009-05-04T07:30:00Z,27.9396,-96.8429,2.0,25.42991611,5.86859438,-99999.0,'11133222,11111222,99999999' 
TABS,ioos:station:wmo:42048:1,2009-05-04T08:00:00Z,27.9396,-96.8429,2.0,74.62036142,4.034476422,-99999.0,'11133222,11111222,99999999' 
TABS,ioos:station:wmo:42048:1,2009-05-04T08:30:00Z,27.9396,-96.8429,2.0,54.00858791,4.696551927,-99999.0,'11133222,11111222,99999999' 
TABS,ioos:station:wmo:42048:1,2009-05-04T09:00:00Z,27.9396,-96.8429,2.0,53.77355235,3.38421335,-99999.0,'11133222,11111222,99999999' 
TABS,ioos:station:wmo:42048:1,2009-05-04T09:30:00Z,27.9396,-96.8429,2.0,64.66578274,2.290261994,-99999.0,'11133222,11111222,99999999' 
TABS,ioos:station:wmo:42048:1,2009-05-04T10:00:00Z,27.9396,-96.8429,2.0,63.24898677,4.132275402,-99999.0,'11133222,11111222,99999999' 
TABS,ioos:station:wmo:42048:1,2009-05-04T10:30:00Z,27.9396,-96.8429,2.0,118.2420851,1.986479298,-99999.0,'11133222,11111222,99999999' 
TABS,ioos:station:wmo:42048:1,2009-05-04T11:00:00Z,27.9396,-96.8429,2.0,209.7134285,2.279758759,-99999.0,'11133222,11111222,99999999' 
TABS,ioos:station:wmo:42048:1,2009-05-04T11:30:00Z,27.9396,-96.8429,2.0,168.0058593,4.76400042,-99999.0,'11133222,11111222,99999999' 
TABS,ioos:station:wmo:42048:1,2009-05-04T12:00:00Z,27.9396,-96.8429,2.0,194.5164556,2.313871215,-99999.0,'11133222,11111222,99999999' 
TABS,ioos:station:wmo:42048:1,2009-05-04T12:30:00Z,27.9396,-96.8429,2.0,201.290895,2.919246478,-99999.0,'11133222,11111222,99999999' 
TABS,ioos:station:wmo:42048:1,2009-05-04T13:00:00Z,27.9396,-96.8429,2.0,244.2709634,3.063739545,-99999.0,'11133222,11111222,99999999' 
TABS,ioos:station:wmo:42048:1,2009-05-04T13:30:00Z,27.9396,-96.8429,2.0,240.6505859,7.181782509,-99999.0,'11133222,11111222,99999999' 
TABS,ioos:station:wmo:42048:1,2009-05-04T14:00:00Z,27.9396,-96.8429,2.0,259.7277865,9.309199751,-99999.0,'11133222,11111222,99999999' 
TABS,ioos:station:wmo:42048:1,2009-05-04T14:30:00Z,27.9396,-96.8429,2.0,273.3879593,11.16951655,-99999.0,'11111222,11111222,99999999' 
TABS,ioos:station:wmo:42048:1,2009-05-04T15:00:00Z,27.9396,-96.8429,2.0,276.1513999,12.03931061,-99999.0,'11111222,11111222,99999999' 
TABS,ioos:station:wmo:42048:1,2009-05-04T15:30:00Z,27.9396,-96.8429,2.0,274.3356657,11.77368676,-99999.0,'11111222,11111222,99999999' 
TABS,ioos:station:wmo:42048:1,2009-05-04T16:00:00Z,27.9396,-96.8429,2.0,305.1402266,15.23694523,-99999.0,'11111222,11111222,99999999' 